[[{"header":{"parameterUnit":"m.s-1","parameterCategory":1,"la1":30.2991,"la2":30.254,"lo1":-89.0895,"lo2":-89.0444,"dy":0.0017,"dx":0.0017,"nx":28,"ny":28,"refTime":"2023-09-28T09:00:00:Z","depth":0,"parameterNumber":2,"parameterNumberName":"U-component_of_WINDS"},"data":[0,0,0,0,0,0,0,0,0,0,0,0,0,0,0,0,0,0,0,0,0,0,0,0,0,0,0,0,0,0,0,0,0,0,0,0,0,0,0,0,0,0,0,0,0,0,0,0,0,0,0,0,0,0,0,0,0,0,-4.9985,-4.9986,0,-5.0039,-5.0039,-5.004,-4.9949,-4.9946,-4.9943,-4.994,-4.9997,-5.0002,-5.0006,0,0,0,0,0,0,0,0,0,0,0,0,0,-4.9808,-4.9812,-4.9985,-4.9986,-4.9987,-5.0039,-5.0039,-5.004,-4.995,-4.9946,-4.9942,-4.9939,-4.9996,-5.0001,-5.0006,0,0,0,0,0,0,0,0,0,0,0,0,0,-4.9876,-4.9813,-4.9985,-4.9948,-4.9945,-5.0038,-5.0039,-5.004,-4.9951,-4.9946,-4.9941,-4.9937,-4.9994,-5.0001,-5.0007,-5.014,0,0,-5.0027,-5.003,0,0,0,0,0,0,0,0,-4.9872,-4.9883,-4.9953,-4.9951,-4.9948,-4.9982,-4.9998,-5.0074,-4.9952,-4.9949,-4.994,-4.9935,-4.9996,-5.0002,-5.0023,-5.0143,-5.0145,-5.0028,-5.0032,-5.0035,-5.0036,0,0,0,0,0,0,0,-4.9868,-4.988,-5.0006,-4.9954,-4.9951,-4.9929,-4.9934,-5.0012,-4.9998,-4.9948,-4.9942,-4.9949,-4.9994,-5.0016,-5.0023,-5.0146,-5.0028,-5.0033,-5.0037,-5.004,-5.038,-5.0385,0,0,0,0,0,0,-4.9867,-4.9876,-5.0005,-5.0008,-4.9898,-4.9936,-4.9941,-4.9976,-4.9997,-4.9995,-4.9953,-4.9945,-5.0007,-5.0016,-5.0025,-5.0184,-5.0035,-5.0041,-5.0044,-5.0375,-5.0381,-5.0387,0,0,0,0,0,0,-4.9864,-4.988,-5.0003,-4.9941,-4.9955,-4.9944,-4.9984,-4.998,-5.0002,-5.0,-4.9998,-4.9979,-5.0004,-5.0016,-5.0112,-5.0184,-5.0044,-5.005,-5.0369,-5.0377,-5.0384,-5.0501,0,0,0,0,0,0,-4.9859,-4.9879,-4.9929,-4.9942,-4.9958,-5.0089,-4.9988,-4.9984,-5.0013,-5.0003,-5.0023,-5.0022,-5.0001,-5.0103,-5.0119,-5.0191,-5.0055,-5.0363,-5.0373,-5.0382,-5.0491,-5.0512,-5.053,0,0,0,0,0,-4.9853,-4.996,-4.9932,-4.9948,-5.002,-5.0093,-5.0102,-5.0075,-5.0019,-5.007,-5.0069,-5.0022,-5.0174,-5.0114,-5.0131,-5.0206,-5.0358,-5.037,-5.0381,-5.0482,-5.0508,-5.053,0,0,0,0,0,0,-4.9955,-4.9961,-4.993,-5.0043,-5.0068,-5.0077,-5.014,-5.0103,-5.0145,-5.0133,-5.0099,-5.0104,-5.0209,-5.0217,-5.015,-5.0337,-5.0257,-5.0272,-5.0328,-5.0352,-5.0371,-5.0368,-5.006,0,0,0,0,0,-4.999,-5.0048,-5.005,-5.0151,-5.0165,-5.0151,-5.0181,-5.0158,-5.0183,-5.0193,-5.02,-5.0226,-5.028,-5.0316,-5.0366,-5.0491,-5.0496,-5.0552,-5.0571,-5.0587,-5.0601,-5.067,-5.0696,-5.0425,-5.0424,-5.0424,0,0,-5.0065,-5.0075,-5.0114,-5.0171,-5.0188,-5.025,-5.016,-5.0229,-5.0275,-5.0204,-5.0296,-5.0302,-5.0329,-5.0442,-5.0492,-5.0452,-5.0677,-5.0602,-5.0614,-5.062,-5.0685,-5.0711,-5.0733,-5.0432,-5.0431,-5.043,0,0,-5.0232,-5.0245,-5.0331,-5.0349,-5.0375,-5.0366,-5.0386,-5.0402,-5.0403,-5.0494,-5.0443,-5.0498,-5.059,-5.0613,-5.0636,-5.0814,-5.0773,-5.0831,-5.0933,-5.1001,-5.1022,-5.1041,-5.1106,-5.113,-5.0845,-5.0845,-5.0845,0,-5.0321,-5.0412,-5.038,-5.0453,-5.048,-5.0419,-5.0506,-5.0526,-5.0568,-5.0589,-5.0543,-5.0659,-5.0673,-5.0791,-5.0835,-5.0855,-5.0879,-5.0829,-5.1022,-5.104,-5.1057,-5.1119,-5.1144,-5.0852,-5.0851,-5.085,-5.085,0,-5.0521,-5.0585,-5.0651,-5.0692,-5.0727,-5.0807,-5.0789,-5.0828,-5.0803,-5.0798,-5.0894,-5.0908,-5.0961,-5.0986,-5.0962,-5.1102,-5.1076,-5.1027,-5.0946,-5.1091,-5.1148,-5.1172,-5.0862,-5.086,-5.0857,-5.0856,0,0,-5.0754,-5.0777,-5.0802,-5.0821,-5.0846,-5.0895,-5.0973,-5.1023,-5.1059,-5.109,-5.1156,-5.1236,-5.1191,-5.1218,-5.1196,-5.1255,-5.1397,-5.1198,-5.1199,-5.1237,-5.1555,-5.1593,-5.1621,-5.137,-5.1374,-5.1378,-5.1553,0,-5.0921,-5.1055,-5.1029,-5.116,-5.122,-5.1163,-5.1231,-5.1254,-5.1253,-5.1304,-5.1301,-5.136,-5.1295,-5.1311,-5.1367,-5.1368,-5.1461,-5.1355,-5.1432,-5.1436,-5.1429,-5.165,-5.169,-5.1855,-5.1575,-5.1579,-5.1581,0,-5.1135,-5.1174,-5.1311,-5.1328,-5.1352,-5.1413,-5.1459,-5.1507,-5.1534,-5.1528,-5.1559,-5.1526,-5.1605,-5.1523,-5.1633,-5.1561,-5.1591,-5.1597,-5.1603,-5.161,-5.1518,-5.1665,-5.1907,-5.1932,-5.1616,-5.1613,-5.1611,0,-5.1293,-5.138,-5.1473,-5.1491,-5.1513,-5.1558,-5.1569,-5.159,-5.1623,-5.1663,-5.1684,-5.1733,-5.176,-5.1799,-5.1781,-5.1722,-5.1895,-5.181,-5.1895,-5.1895,-5.1934,-5.1933,-5.2186,-5.1952,-5.1951,-5.1951,-5.195,0,-5.1484,-5.157,-5.1545,-5.1603,-5.1699,-5.1669,-5.1765,-5.1769,-5.1789,-5.1848,-5.1802,-5.1858,-5.183,-5.1885,-5.1871,-5.1965,-5.1978,-5.1977,-5.1973,-5.1982,-5.1982,-5.2002,-5.1991,-5.1957,-5.1956,-5.1955,-5.1954,0,-5.1677,-5.1663,-5.1762,-5.1775,-5.178,-5.185,-5.1862,-5.1917,-5.1911,-5.1986,-5.2002,-5.1995,-5.2057,-5.2043,-5.2111,-5.2102,-5.2221,-5.2202,-5.2212,-5.2208,-5.2294,-5.2287,-5.257,-5.2607,-5.2347,-5.235,-5.2352,0,-5.18,-5.1866,-5.1886,-5.1921,-5.1936,-5.1994,-5.2027,-5.2001,-5.2037,-5.2073,-5.2124,-5.2182,-5.2227,-5.233,-5.2332,-5.2384,-5.2367,-5.2463,-5.2375,-5.2383,-5.2371,-5.2368,-5.2375,-5.2481,-5.2484,-5.2486,-5.2488,0,-5.2021,-5.2012,-5.206,-5.2108,-5.2149,-5.2185,-5.2217,-5.2249,-5.2225,-5.2269,-5.2332,-5.2367,-5.2437,-5.2497,-5.2545,-5.2558,-5.2521,-5.2515,-5.2538,-5.2549,-5.2553,-5.2554,-5.2262,-5.2509,-5.2507,-5.2506,-5.2504,-5.2504,-5.2184,-5.2241,-5.2264,-5.2321,-5.2342,-5.2373,-5.2426,-5.2427,-5.2479,-5.2533,-5.2515,-5.2588,-5.2614,-5.2675,-5.2694,-5.2752,-5.2716,-5.2748,-5.2757,-5.2766,-5.2777,-5.2543,-5.276,-5.276,-5.2759,-5.2759,-5.2758,0,-5.2404,-5.2417,-5.2469,-5.2515,-5.2561,-5.252,-5.2553,-5.2594,-5.2659,-5.2686,-5.2731,-5.2805,-5.2863,-5.2869,-5.2924,-5.2969,-5.2953,-5.2984,-5.2981,-5.2985,-5.2805,-5.2781,-5.2996,-5.2996,-5.2996,-5.2996,-5.2996,-5.2996,-5.2524,-5.2618,-5.2611,-5.2715,-5.2727,-5.2797,-5.282,-5.285,-5.2871,-5.2955,-5.3003,-5.3006,-5.3026,-5.3082,-5.3133,-5.3134,-5.3157,-5.3196,-5.319,-5.3021,-5.2998,-5.2975,-5.2952,-5.32,-5.3201,-5.3366,-5.3367,-5.3368]},{"header":{"parameterUnit":"m.s-1","parameterCategory":1,"la1":30.2991,"la2":30.254,"lo1":-89.0895,"lo2":-89.0444,"dy":0.0017,"dx":0.0017,"nx":28,"ny":28,"refTime":"2023-09-28T09:00:00:Z","depth":0,"parameterNumber":3,"parameterNumberName":"V-component_of_WINDS"},"data":[0,0,0,0,0,0,0,0,0,0,0,0,0,0,0,0,0,0,0,0,0,0,0,0,0,0,0,0,0,0,0,0,0,0,0,0,0,0,0,0,0,0,0,0,0,0,0,0,0,0,0,0,0,0,0,0,0,0,-2.7691,-2.7691,0,-2.7689,-2.7689,-2.7689,-2.7636,-2.7635,-2.7633,-2.7632,-2.763,-2.7632,-2.7633,0,0,0,0,0,0,0,0,0,0,0,0,0,-2.7647,-2.7649,-2.7691,-2.7691,-2.7691,-2.7689,-2.7689,-2.7689,-2.7636,-2.7635,-2.7633,-2.7632,-2.763,-2.7631,-2.7633,0,0,0,0,0,0,0,0,0,0,0,0,0,-2.7658,-2.7649,-2.7691,-2.7664,-2.7662,-2.7689,-2.7689,-2.7689,-2.7637,-2.7635,-2.7633,-2.7631,-2.763,-2.7631,-2.7633,-2.7686,0,0,-2.7639,-2.764,0,0,0,0,0,0,0,0,-2.7658,-2.766,-2.7668,-2.7666,-2.7664,-2.7661,-2.7673,-2.7688,-2.7637,-2.7646,-2.7632,-2.763,-2.7642,-2.7643,-2.7647,-2.7686,-2.7685,-2.7639,-2.764,-2.7641,-2.7641,0,0,0,0,0,0,0,-2.7657,-2.766,-2.769,-2.7668,-2.7666,-2.7652,-2.7651,-2.7676,-2.7656,-2.7645,-2.7642,-2.7642,-2.764,-2.7645,-2.7647,-2.7685,-2.7639,-2.7641,-2.7642,-2.7642,-2.7767,-2.7769,0,0,0,0,0,0,-2.766,-2.7659,-2.769,-2.769,-2.7655,-2.7655,-2.7654,-2.7664,-2.7655,-2.7652,-2.7644,-2.764,-2.7643,-2.7645,-2.7646,-2.7707,-2.7641,-2.7643,-2.7644,-2.7764,-2.7767,-2.7769,0,0,0,0,0,0,-2.7659,-2.7663,-2.769,-2.7674,-2.7676,-2.7658,-2.7669,-2.7665,-2.767,-2.7654,-2.765,-2.7653,-2.7642,-2.7644,-2.7676,-2.7707,-2.7643,-2.7645,-2.7762,-2.7765,-2.7768,-2.783,0,0,0,0,0,0,-2.7658,-2.7663,-2.7683,-2.7674,-2.7677,-2.7721,-2.7671,-2.7666,-2.7673,-2.7667,-2.7661,-2.7658,-2.764,-2.7674,-2.7678,-2.7708,-2.7647,-2.7759,-2.7763,-2.7767,-2.7825,-2.7835,-2.7843,0,0,0,0,0,-2.7657,-2.7701,-2.7685,-2.7689,-2.7702,-2.7722,-2.7724,-2.7702,-2.7676,-2.7696,-2.7685,-2.7659,-2.7702,-2.7678,-2.7682,-2.7713,-2.7757,-2.7762,-2.7767,-2.7821,-2.7833,-2.7843,0,0,0,0,0,0,-2.7714,-2.7699,-2.7681,-2.7723,-2.7725,-2.7713,-2.7738,-2.7716,-2.7724,-2.7719,-2.7691,-2.769,-2.7727,-2.7723,-2.7696,-2.7763,-2.7725,-2.7731,-2.7765,-2.7776,-2.7785,-2.7785,-2.7648,0,0,0,0,0,-2.7731,-2.7749,-2.7735,-2.7774,-2.7776,-2.7757,-2.7765,-2.7748,-2.7748,-2.7748,-2.7741,-2.7742,-2.7755,-2.7765,-2.7777,-2.7824,-2.7822,-2.7847,-2.7856,-2.7864,-2.787,-2.7894,-2.7905,-2.7786,-2.7786,-2.7786,0,0,-2.7768,-2.7762,-2.7775,-2.7785,-2.7784,-2.7804,-2.7758,-2.778,-2.7794,-2.7752,-2.7782,-2.7776,-2.7775,-2.7815,-2.7833,-2.7813,-2.7902,-2.787,-2.7876,-2.7878,-2.79,-2.7912,-2.7922,-2.7789,-2.7788,-2.7788,0,0,-2.7844,-2.7841,-2.7873,-2.7873,-2.7871,-2.7859,-2.7866,-2.7858,-2.7853,-2.7883,-2.7852,-2.7867,-2.7892,-2.7893,-2.7896,-2.7972,-2.7948,-2.7977,-2.8025,-2.8049,-2.8058,-2.8066,-2.8094,-2.8104,-2.7982,-2.7982,-2.7983,0,-2.7889,-2.7917,-2.7892,-2.7917,-2.7922,-2.7884,-2.7916,-2.7917,-2.792,-2.7925,-2.7903,-2.7933,-2.7929,-2.7969,-2.7987,-2.7991,-2.7999,-2.7978,-2.8059,-2.8067,-2.8074,-2.81,-2.811,-2.7986,-2.7986,-2.7985,-2.7985,0,-2.7973,-2.7993,-2.8019,-2.8022,-2.803,-2.8059,-2.8038,-2.8049,-2.8031,-2.8021,-2.8051,-2.8046,-2.8056,-2.8064,-2.8047,-2.8101,-2.8089,-2.8064,-2.8025,-2.8089,-2.8113,-2.8123,-2.7991,-2.799,-2.7989,-2.7988,0,0,-2.8086,-2.8075,-2.8085,-2.8086,-2.8082,-2.8096,-2.8122,-2.8132,-2.8143,-2.8145,-2.8167,-2.8188,-2.8164,-2.8168,-2.815,-2.8172,-2.8232,-2.8143,-2.8143,-2.816,-2.8292,-2.8312,-2.8324,-2.8216,-2.8217,-2.8219,-2.8292,0,-2.816,-2.8204,-2.8183,-2.823,-2.8247,-2.8211,-2.8234,-2.8234,-2.8224,-2.8238,-2.8227,-2.8243,-2.821,-2.8212,-2.8231,-2.8221,-2.8258,-2.8215,-2.8236,-2.8237,-2.8238,-2.8336,-2.8358,-2.8427,-2.8301,-2.8303,-2.8304,0,-2.8253,-2.826,-2.8308,-2.83,-2.8307,-2.8328,-2.8335,-2.8348,-2.8347,-2.8338,-2.8343,-2.832,-2.8345,-2.8306,-2.834,-2.8311,-2.8318,-2.8314,-2.8316,-2.8318,-2.8275,-2.8341,-2.8449,-2.846,-2.8318,-2.8317,-2.8316,0,-2.8331,-2.8352,-2.8384,-2.8386,-2.8377,-2.8393,-2.839,-2.8386,-2.8393,-2.8399,-2.8404,-2.8413,-2.8418,-2.8425,-2.8405,-2.8379,-2.8442,-2.8401,-2.8436,-2.8437,-2.8452,-2.8451,-2.8563,-2.8455,-2.8455,-2.8455,-2.8455,0,-2.8416,-2.8448,-2.8419,-2.8439,-2.8473,-2.8447,-2.8481,-2.8474,-2.8471,-2.8489,-2.8458,-2.8475,-2.8447,-2.8462,-2.8446,-2.8477,-2.8479,-2.8473,-2.8469,-2.8477,-2.8478,-2.8481,-2.8476,-2.8458,-2.8457,-2.8456,-2.8456,0,-2.851,-2.8492,-2.8524,-2.8513,-2.8511,-2.8536,-2.8527,-2.8544,-2.8532,-2.8555,-2.8559,-2.854,-2.8555,-2.8536,-2.855,-2.8539,-2.8581,-2.8569,-2.8582,-2.8579,-2.8614,-2.8612,-2.8733,-2.8748,-2.863,-2.8631,-2.8632,0,-2.8566,-2.8589,-2.858,-2.859,-2.8589,-2.8604,-2.8611,-2.8587,-2.8595,-2.8595,-2.8613,-2.8625,-2.8634,-2.866,-2.8648,-2.8658,-2.8647,-2.8689,-2.8648,-2.8655,-2.8648,-2.8647,-2.865,-2.8697,-2.8699,-2.87,-2.8701,0,-2.8668,-2.8658,-2.8669,-2.8677,-2.8686,-2.8692,-2.8695,-2.8704,-2.8678,-2.8689,-2.8704,-2.8711,-2.8725,-2.8738,-2.8745,-2.8741,-2.8717,-2.8713,-2.8722,-2.873,-2.8737,-2.8734,-2.8605,-2.8711,-2.871,-2.8709,-2.8709,-2.8708,-2.8745,-2.8764,-2.876,-2.8774,-2.8773,-2.8777,-2.8793,-2.8782,-2.8794,-2.8804,-2.8788,-2.8807,-2.8805,-2.8811,-2.8811,-2.8825,-2.8807,-2.882,-2.8823,-2.8827,-2.8832,-2.8734,-2.8826,-2.8826,-2.8826,-2.8825,-2.8825,0,-2.8845,-2.8841,-2.8854,-2.8859,-2.8869,-2.8844,-2.8846,-2.8857,-2.8874,-2.8874,-2.8883,-2.89,-2.8913,-2.8901,-2.8911,-2.8925,-2.8914,-2.8929,-2.8928,-2.8928,-2.8848,-2.8839,-2.8937,-2.8937,-2.8937,-2.8937,-2.8937,-2.8937,-2.8899,-2.8929,-2.8919,-2.8949,-2.8944,-2.8962,-2.8966,-2.8969,-2.8968,-2.8989,-2.8999,-2.8991,-2.8986,-2.8995,-2.9006,-2.9002,-2.9007,-2.9026,-2.9018,-2.8944,-2.8933,-2.8923,-2.8915,-2.9027,-2.9027,-2.9097,-2.9098,-2.9098]}]]